[[{"header":{"parameterUnit":"m.s-1","parameterCategory":2,"la1":30.2992,"la2":30.254,"lo1":-89.0895,"lo2":-89.0443,"dy":0.0025,"dx":0.0025,"nx":19,"ny":19,"refTime":"2026-04-15T21:00:00:Z","depth":"0","parameterNumber":2,"parameterNumberName":"U-component_of_CURRENTS"},"data":[0,0,0,0.1894,0.1896,0.1945,0.1945,0.2015,0.2016,0,0,0,0,0,0,0,0,0,0,0,0.1873,0.1873,0.1894,0.1896,0.1945,0.1945,0.2015,0.2016,0,0,0,0,0,0,0,0,0,0,0,0.1873,0.1873,0.1874,0.1896,0.1945,0.1945,0.2015,0.1974,0,0,0,0,0,0,0,0,0,0,0.1925,0.1917,0.1873,0.1874,0.1896,0.1944,0.1945,0.1972,0.1977,0.1998,0,0.2009,0,0.2021,0.2021,0.2022,0,0,0,0.1888,0.1913,0.1919,0.1874,0.1897,0.1944,0.192,0.1974,0.198,0.2004,0.201,0.2013,0.2022,0.2022,0.2022,0.2132,0.2132,0,0,0.1885,0.1889,0.1915,0.1922,0.1916,0.1919,0.1922,0.1977,0.1991,0.2011,0.2015,0.2023,0.2022,0.2023,0.2131,0.2132,0,0,0,0.1883,0.1888,0.1892,0.1919,0.1932,0.192,0.1924,0.1988,0.1987,0.2016,0.2024,0.2023,0.2024,0.213,0.2131,0.2217,0,0,0,0.1881,0.1887,0.189,0.1894,0.1931,0.1963,0.1933,0.1983,0.199,0.2024,0.2023,0.2025,0.213,0.2131,0.2213,0.2295,0,0,0,0.187,0.1886,0.1891,0.1894,0.1919,0.1962,0.1964,0.1984,0.1996,0.2022,0.2025,0.2129,0.2131,0.221,0.2288,0.2479,0,0,0,0.1872,0.1921,0.1892,0.1957,0.1918,0.1987,0.1964,0.2018,0.2046,0.2023,0.213,0.2131,0.2209,0.2284,0.2472,0.2459,0.2489,0,0,0.194,0.1929,0.1969,0.1945,0.2012,0.1979,0.2059,0.2079,0.2071,0.2109,0.2112,0.2214,0.2288,0.2478,0.2536,0.2564,0,0,0,0.1996,0.2011,0.2032,0.2061,0.209,0.2121,0.2122,0.2132,0.2175,0.2095,0.2218,0.2262,0.238,0.2356,0.2378,0.2395,0.2137,0.2137,0.2137,0.2064,0.2075,0.2132,0.2144,0.2185,0.222,0.2268,0.2279,0.2239,0.227,0.2332,0.2538,0.2508,0.2526,0.2542,0.2309,0.2309,0.2309,0.2309,0.2144,0.2167,0.2183,0.2235,0.2261,0.2314,0.2389,0.2391,0.2533,0.2416,0.2527,0.2445,0.2556,0.2563,0.2315,0.2314,0.2313,0.2313,0.2312,0.2173,0.2181,0.2211,0.2264,0.2329,0.2369,0.2513,0.2588,0.2644,0.2752,0.28,0.2797,0.2814,0.2832,0.2834,0.2835,0.2836,0.2837,0.2837,0.2176,0.2208,0.2231,0.2291,0.2322,0.2424,0.2618,0.2745,0.2926,0.2944,0.2944,0.2884,0.27,0.2692,0.2856,0.2852,0.285,0.2848,0.2847,0.2167,0.2185,0.2221,0.2252,0.2336,0.2409,0.2635,0.2895,0.3107,0.3192,0.3176,0.3062,0.3066,0.3044,0.3045,0.3292,0.3292,0.3292,0.3292,0.2133,0.2155,0.217,0.2207,0.2286,0.239,0.2554,0.2847,0.3186,0.3335,0.337,0.3194,0.3176,0.3176,0.3152,0.315,0.3418,0.3419,0.3419,0.2082,0.2111,0.2086,0.2139,0.2219,0.2324,0.2398,0.2651,0.3193,0.3427,0.3414,0.3409,0.3143,0.3112,0.3092,0.3056,0.3043,0,0]},{"header":{"parameterUnit":"m.s-1","parameterCategory":2,"la1":30.2992,"la2":30.254,"lo1":-89.0895,"lo2":-89.0443,"dy":0.0025,"dx":0.0025,"nx":19,"ny":19,"refTime":"2026-04-15T21:00:00:Z","depth":"0","parameterNumber":3,"parameterNumberName":"V-component_of_CURRENTS"},"data":[0,0,0,0.0141,0.014,0.0072,0.0072,-0.0009,-0.001,0,0,0,0,0,0,0,0,0,0,0,0.0165,0.0165,0.0141,0.014,0.0072,0.0072,-0.0009,-0.001,0,0,0,0,0,0,0,0,0,0,0,0.0165,0.0165,0.0165,0.014,0.0072,0.0072,-0.0009,0.0037,0,0,0,0,0,0,0,0,0,0,0.01,0.0134,0.0165,0.0165,0.014,0.0073,0.0072,0.0039,0.0034,0.0029,0,0.0029,0,0.0016,-0.0013,-0.0013,0,0,0,0.0123,0.0138,0.0117,0.0165,0.0139,0.0073,0.0098,0.0036,0.003,0.0023,0.0028,0.0025,0.0015,-0.0014,-0.0014,-0.0036,-0.0036,0,0,0.0127,0.0151,0.0121,0.0114,0.0136,0.01,0.0096,0.0032,0.0035,0.0028,0.0023,0.0013,-0.0014,-0.0014,-0.0036,-0.0036,0,0,0,0.0149,0.0154,0.0134,0.0117,0.0109,0.0099,0.0094,0.0038,0.0031,0.0022,0.0012,-0.0014,-0.0015,-0.0036,-0.0036,0.0061,0,0,0,0.015,0.0168,0.0136,0.0149,0.0111,0.0074,0.0101,0.0035,0.0027,0.0013,-0.0014,-0.0016,-0.0036,-0.0036,0.0058,0.0203,0,0,0,0.0165,0.0169,0.0165,0.0151,0.0128,0.0074,0.0063,0.0032,0.0022,-0.0014,-0.0016,-0.0037,-0.0036,0.0055,0.0195,0.0372,0,0,0,0.0185,0.0244,0.0166,0.0217,0.0129,0.0125,0.0063,0.0054,0.0032,-0.0015,-0.0036,-0.0036,0.0055,0.019,0.0365,0.0499,0.0543,0,0,0.0284,0.0256,0.0285,0.0215,0.0241,0.0132,0.0143,0.0088,0.0031,-0.0019,-0.0019,0.0059,0.0194,0.0371,0.0522,0.0567,0,0,0,0.0332,0.0354,0.0348,0.0334,0.0285,0.0245,0.0154,0.0116,0.0069,0.0022,0.004,0.0124,0.0233,0.0296,0.033,0.0086,-0.0034,-0.0034,-0.0034,0.0503,0.0455,0.0505,0.0439,0.0411,0.0315,0.0302,0.0227,0.0125,0.0115,0.0184,0.0372,0.0432,0.0461,0.0204,0.0107,0.0108,0.0108,0.0108,0.0663,0.0688,0.0614,0.0647,0.0555,0.0534,0.0436,0.037,0.0408,0.0255,0.0353,0.0371,0.0506,0.0217,0.0114,0.0113,0.0112,0.0112,0.0111,0.0771,0.078,0.0789,0.0804,0.081,0.0702,0.0818,0.0711,0.0587,0.0656,0.077,0.0769,0.0544,0.0705,0.0707,0.0708,0.0709,0.071,0.0711,0.0878,0.0889,0.0958,0.0977,0.1014,0.1071,0.1078,0.1132,0.1113,0.0981,0.098,0.0583,0.0557,0.0567,0.0732,0.0729,0.0726,0.0724,0.0722,0.0991,0.1002,0.1111,0.1176,0.1303,0.1466,0.1494,0.1611,0.1643,0.1659,0.1037,0.1148,0.1173,0.1142,0.1167,0.1479,0.1479,0.1479,0.1479,0.1061,0.1076,0.1227,0.1367,0.1545,0.1645,0.1914,0.195,0.1635,0.1392,0.1203,0.0986,0.0966,0.0962,0.0935,0.0947,0.1197,0.1195,0.1194,0.1122,0.1162,0.1275,0.1409,0.1631,0.1834,0.2043,0.211,0.159,0.1146,0.084,0.0852,0.048,0.0469,0.0407,0.039,0.039,0,0]}],[{"header":{"parameterUnit":"m.s-1","parameterCategory":2,"la1":30.2992,"la2":30.254,"lo1":-89.0895,"lo2":-89.0443,"dy":0.0025,"dx":0.0025,"nx":19,"ny":19,"refTime":"2026-04-15T21:00:00:Z","depth":"2","parameterNumber":2,"parameterNumberName":"U-component_of_CURRENTS"},"data":[0,0,0,0.19,0.1901,0.1951,0.1951,0.2044,0.2045,0,0,0,0,0,0,0,0,0,0,0,0.1882,0.1882,0.1899,0.1901,0.1951,0.1951,0.2044,0.2045,0,0,0,0,0,0,0,0,0,0,0,0.1882,0.1882,0.1883,0.1901,0.1951,0.1951,0.2043,0.1999,0,0,0,0,0,0,0,0,0,0,0.1947,0.1931,0.1882,0.1883,0.1901,0.1951,0.1951,0.1997,0.2002,0.2029,0,0.2036,0,0.2043,0.2051,0.2052,0,0,0,0.1903,0.1927,0.1935,0.1883,0.1902,0.1951,0.1929,0.1999,0.2005,0.2036,0.2037,0.204,0.2045,0.2052,0.2053,0.2169,0.217,0,0,0.19,0.1899,0.1931,0.1939,0.1915,0.1927,0.193,0.2003,0.2013,0.2037,0.2042,0.2046,0.2053,0.2054,0.2169,0.217,0,0,0,0.1891,0.1897,0.1902,0.1935,0.1942,0.1928,0.1932,0.201,0.201,0.2043,0.2047,0.2053,0.2055,0.2168,0.2169,0.2254,0,0,0,0.1889,0.1891,0.1901,0.1902,0.1941,0.1974,0.1938,0.2005,0.2013,0.2047,0.2053,0.2056,0.2168,0.2169,0.2251,0.2318,0,0,0,0.188,0.189,0.1894,0.1902,0.1922,0.1973,0.1978,0.2007,0.2016,0.2052,0.2056,0.2167,0.2169,0.2247,0.2311,0.2479,0,0,0,0.1879,0.1917,0.1894,0.1932,0.1921,0.1993,0.1977,0.2037,0.2073,0.2054,0.2168,0.2169,0.2246,0.2307,0.2473,0.2401,0.2423,0,0,0.1931,0.1923,0.1943,0.1925,0.1996,0.1986,0.2069,0.2102,0.2098,0.2145,0.2148,0.2252,0.2311,0.2478,0.2473,0.2494,0,0,0,0.1962,0.198,0.1998,0.2024,0.2059,0.2116,0.2136,0.215,0.2203,0.2124,0.2254,0.2289,0.2392,0.2334,0.2351,0.2175,0.2175,0.2175,0.2175,0.2031,0.2034,0.2086,0.2108,0.2155,0.2212,0.2269,0.2291,0.2265,0.2298,0.2358,0.2544,0.2478,0.2491,0.2341,0.2342,0.2342,0.2342,0.2342,0.21,0.2119,0.2141,0.2195,0.2245,0.2311,0.2393,0.2401,0.2536,0.2437,0.2534,0.2424,0.2514,0.2349,0.2348,0.2347,0.2346,0.2346,0.2345,0.2128,0.2142,0.2169,0.2232,0.2314,0.237,0.2513,0.2586,0.2639,0.2735,0.2736,0.2732,0.2651,0.281,0.2811,0.2812,0.2813,0.2814,0.2815,0.2137,0.2171,0.2199,0.2273,0.2312,0.2424,0.2612,0.2733,0.2868,0.286,0.2859,0.2704,0.2689,0.2681,0.2831,0.2828,0.2826,0.2824,0.2823,0.2135,0.2156,0.2188,0.2226,0.2326,0.2385,0.2612,0.2821,0.3012,0.3057,0.2946,0.2937,0.2929,0.2912,0.2909,0.3111,0.3111,0.3111,0.3111,0.2108,0.2132,0.2142,0.218,0.2265,0.2356,0.2432,0.2514,0.2728,0.2751,0.2766,0.2565,0.2564,0.2523,0.2514,0.2498,0.2593,0.2591,0.259,0.2063,0.2082,0.2062,0.2117,0.2195,0.2275,0.2185,0.2076,0.227,0.2557,0.2548,0.3101,0.2837,0.2823,0.2778,0.2758,0.2739,0,0]},{"header":{"parameterUnit":"m.s-1","parameterCategory":2,"la1":30.2992,"la2":30.254,"lo1":-89.0895,"lo2":-89.0443,"dy":0.0025,"dx":0.0025,"nx":19,"ny":19,"refTime":"2026-04-15T21:00:00:Z","depth":"2","parameterNumber":3,"parameterNumberName":"V-component_of_CURRENTS"},"data":[0,0,0,-0.0015,-0.0016,-0.0077,-0.0077,-0.016,-0.0161,0,0,0,0,0,0,0,0,0,0,0,0.0008,0.0008,-0.0015,-0.0016,-0.0077,-0.0077,-0.016,-0.0161,0,0,0,0,0,0,0,0,0,0,0,0.0008,0.0008,0.0008,-0.0016,-0.0077,-0.0077,-0.016,-0.0117,0,0,0,0,0,0,0,0,0,0,-0.0058,-0.003,0.0008,0.0008,-0.0017,-0.0077,-0.0077,-0.0115,-0.0119,-0.013,0,-0.0128,0,-0.0141,-0.0165,-0.0166,0,0,0,-0.0031,-0.0026,-0.004,0.0008,-0.0017,-0.0077,-0.0054,-0.0117,-0.0123,-0.0136,-0.0129,-0.0132,-0.0142,-0.0166,-0.0166,-0.0191,-0.0191,0,0,-0.0027,-0.0009,-0.0037,-0.0043,-0.0018,-0.0052,-0.0055,-0.0121,-0.0121,-0.0129,-0.0134,-0.0144,-0.0166,-0.0167,-0.0191,-0.0191,0,0,0,-0.0008,-0.0007,-0.002,-0.004,-0.0047,-0.0053,-0.0057,-0.0118,-0.0122,-0.0135,-0.0145,-0.0167,-0.0167,-0.0191,-0.0191,-0.0109,0,0,0,-0.0007,0.0005,-0.0018,-0.0009,-0.0046,-0.0083,-0.0053,-0.0117,-0.0125,-0.0144,-0.0167,-0.0168,-0.0192,-0.0191,-0.0112,-0.002,0,0,0,0.0008,0.0006,0.0005,-0.0008,-0.0028,-0.0082,-0.009,-0.0119,-0.013,-0.0166,-0.0168,-0.0192,-0.0191,-0.0114,-0.0027,0.0061,0,0,0,0.002,0.0045,0.0005,0.0022,-0.0027,-0.0034,-0.009,-0.0102,-0.0124,-0.0167,-0.0192,-0.0191,-0.0115,-0.0031,0.0056,-0.0013,0.0003,0,0,0.0062,0.005,0.0058,0.0022,0.0043,-0.0028,-0.0025,-0.0077,-0.0124,-0.0174,-0.0175,-0.0111,-0.0027,0.006,0.0016,0.0031,0,0,0,0.0078,0.0096,0.0093,0.009,0.006,0.0047,-0.0022,-0.0055,-0.0096,-0.0134,-0.0124,-0.0072,-0.002,-0.0073,-0.0061,-0.0189,-0.0189,-0.0189,-0.0189,0.0171,0.0148,0.0181,0.0157,0.0144,0.0092,0.0081,0.0022,-0.0051,-0.0056,-0.0018,0.0096,0.0036,0.0045,-0.0062,-0.0061,-0.0061,-0.0061,-0.006,0.0265,0.0284,0.0258,0.0292,0.0254,0.0248,0.0175,0.013,0.0133,0.004,0.0085,0.0001,0.0064,-0.0054,-0.0055,-0.0056,-0.0057,-0.0057,-0.0058,0.0335,0.0342,0.0369,0.0404,0.0428,0.037,0.0437,0.0367,0.0258,0.0295,0.0239,0.0235,0.0192,0.0312,0.0313,0.0314,0.0315,0.0315,0.0316,0.0396,0.042,0.0478,0.0528,0.0561,0.0615,0.0618,0.0616,0.05,0.0369,0.0367,0.0223,0.0211,0.0214,0.0328,0.0326,0.0324,0.0323,0.0322,0.0445,0.0486,0.0545,0.0604,0.071,0.0796,0.0832,0.077,0.0758,0.0667,0.0397,0.0391,0.0375,0.0362,0.0367,0.0516,0.0516,0.0516,0.0516,0.0475,0.0503,0.0577,0.0657,0.0778,0.0858,0.0939,0.0863,0.0667,0.0505,0.0506,0.0374,0.0365,0.0342,0.0329,0.0331,0.047,0.047,0.047,0.0487,0.05,0.0542,0.0631,0.0775,0.0889,0.0915,0.0882,0.0618,0.0473,0.054,0.0504,0.0302,0.0292,0.0243,0.0228,0.0225,0,0]}],[{"header":{"parameterUnit":"m.s-1","parameterCategory":2,"la1":30.2992,"la2":30.254,"lo1":-89.0895,"lo2":-89.0443,"dy":0.0025,"dx":0.0025,"nx":19,"ny":19,"refTime":"2026-04-15T21:00:00:Z","depth":"4","parameterNumber":2,"parameterNumberName":"U-component_of_CURRENTS"},"data":[0,0,0,0.1069,0.1073,0.1236,0.1236,0.1332,0.1333,0,0,0,0,0,0,0,0,0,0,0,0.1005,0.1007,0.1069,0.1074,0.1236,0.1236,0.1332,0.1333,0,0,0,0,0,0,0,0,0,0,0,0.1004,0.1006,0.1008,0.1074,0.1236,0.1236,0.1331,0.123,0,0,0,0,0,0,0,0,0,0,0.1084,0.1054,0.1006,0.1008,0.1076,0.1236,0.1236,0.1226,0.1236,0.1235,0,0.1282,0,0.1325,0.1339,0.1339,0,0,0,0.1047,0.1046,0.1094,0.1009,0.1078,0.1236,0.1155,0.1233,0.1244,0.1248,0.1284,0.1289,0.1326,0.1339,0.134,0.1439,0.144,0,0,0.1038,0.1024,0.1087,0.1102,0.1148,0.115,0.116,0.124,0.1259,0.1285,0.1292,0.1328,0.134,0.1341,0.1439,0.1439,0,0,0,0.103,0.1018,0.1065,0.1097,0.1144,0.1155,0.1167,0.1255,0.1274,0.1293,0.1329,0.1341,0.1342,0.1439,0.1439,0.1497,0,0,0,0.1023,0.1016,0.1061,0.1053,0.1144,0.122,0.118,0.1267,0.1279,0.1328,0.1341,0.1343,0.1438,0.1439,0.1494,0.152,0,0,0,0.0992,0.1012,0.104,0.1052,0.1137,0.122,0.1242,0.1271,0.1301,0.1339,0.1343,0.1438,0.1439,0.1492,0.1516,0.1607,0,0,0,0.0957,0.0989,0.1041,0.1102,0.1136,0.1216,0.1242,0.1314,0.135,0.1341,0.1438,0.1439,0.1492,0.1514,0.1604,0.1323,0,0,0,0.0962,0.099,0.1026,0.1077,0.1161,0.119,0.1278,0.1347,0.1358,0.1398,0.1402,0.1495,0.1516,0.1607,0.1378,0,0,0,0,0.1005,0.103,0.1065,0.1143,0.1211,0.1257,0.1332,0.1384,0.1456,0.1392,0.1497,0.1508,0.1565,0.139,0.1443,0.1443,0.1443,0.1443,0.1443,0.0933,0.1012,0.1072,0.1157,0.1217,0.1327,0.1381,0.1455,0.1483,0.153,0.1557,0.1666,0.148,0.1558,0.1558,0.1559,0.1559,0.1559,0.1559,0.0919,0.0961,0.1072,0.1159,0.1241,0.1324,0.1446,0.1502,0.1646,0.1617,0.167,0.1462,0.1565,0.1564,0.1563,0.1562,0.1562,0.1561,0.1561,0.0851,0.0887,0.0968,0.1098,0.1204,0.1324,0.1441,0.156,0.1689,0.1749,0.1619,0.1725,0.1722,0.1817,0.1817,0.1818,0.1818,0.1819,0.1819,0.0749,0.0833,0.0875,0.1015,0.1095,0.1217,0.1442,0.1516,0.1676,0.1662,0.1808,0.1754,0.1745,0.1737,0.1827,0.1826,0.1825,0.1824,0.1823,0.0705,0.0707,0.0772,0.0834,0.0976,0.1046,0.1282,0.142,0.1533,0.1536,0.1613,0.1621,0.1586,0.1582,0.1567,0.161,0.1607,0.1603,0,0.0635,0.0647,0.0686,0.0728,0.0791,0.0931,0.1037,0.1161,0.1331,0.1335,0.1501,0.1584,0.159,0.154,0.1533,0.1508,0,0,0,0.0612,0.0625,0.0619,0.0648,0.0702,0.0845,0.1052,0.1083,0.134,0.1274,0.1522,0.1544,0.1526,0.1851,0.1818,0.1808,0.1794,0,0]},{"header":{"parameterUnit":"m.s-1","parameterCategory":2,"la1":30.2992,"la2":30.254,"lo1":-89.0895,"lo2":-89.0443,"dy":0.0025,"dx":0.0025,"nx":19,"ny":19,"refTime":"2026-04-15T21:00:00:Z","depth":"4","parameterNumber":3,"parameterNumberName":"V-component_of_CURRENTS"},"data":[0,0,0,0.0016,0.0015,-0.0036,-0.0036,-0.0109,-0.011,0,0,0,0,0,0,0,0,0,0,0,0.0037,0.0036,0.0016,0.0015,-0.0036,-0.0036,-0.0109,-0.011,0,0,0,0,0,0,0,0,0,0,0,0.0037,0.0036,0.0036,0.0015,-0.0036,-0.0036,-0.0109,-0.0069,0,0,0,0,0,0,0,0,0,0,-0.0019,-0.0013,0.0036,0.0036,0.0015,-0.0036,-0.0036,-0.0067,-0.0072,-0.0087,0,-0.0092,0,-0.0103,-0.0115,-0.0115,0,0,0,0.0012,-0.0009,-0.0008,0.0036,0.0014,-0.0035,-0.0014,-0.007,-0.0075,-0.0093,-0.0093,-0.0096,-0.0104,-0.0115,-0.0115,-0.0135,-0.0135,0,0,0.0014,0.0011,-0.0004,-0.0011,0.0005,-0.0012,-0.0015,-0.0073,-0.0086,-0.0093,-0.0097,-0.0105,-0.0116,-0.0116,-0.0136,-0.0135,0,0,0,0.0025,0.0012,0.0015,-0.0008,-0.0017,-0.0013,-0.0017,-0.0083,-0.0078,-0.0098,-0.0106,-0.0116,-0.0117,-0.0136,-0.0135,-0.0101,0,0,0,0.0026,0.0019,0.0016,0.0011,-0.0015,-0.0054,-0.0026,-0.0074,-0.0081,-0.0106,-0.0116,-0.0117,-0.0136,-0.0136,-0.0103,-0.0116,0,0,0,0.0038,0.0019,0.0019,0.0011,-0.0008,-0.0053,-0.0052,-0.0076,-0.0086,-0.0115,-0.0118,-0.0137,-0.0136,-0.0104,-0.0118,-0.0177,0,0,0,0.0029,0.0006,0.0019,0.0,-0.0007,-0.0017,-0.0051,-0.0079,-0.0102,-0.0116,-0.0136,-0.0135,-0.0105,-0.0119,-0.0176,-0.0068,0,0,0,-0.0005,0.0002,-0.0003,0.0007,0.0009,-0.0011,-0.0015,-0.0064,-0.0093,-0.012,-0.012,-0.0102,-0.0118,-0.0177,-0.0024,0,0,0,0,-0.0017,-0.0013,-0.0012,-0.0005,-0.0006,-0.0001,-0.0033,-0.0048,-0.0075,-0.0103,-0.0097,-0.0108,-0.0147,-0.0081,-0.0132,-0.0132,-0.0132,-0.0132,-0.0132,-0.0076,-0.0042,-0.0037,0.0006,0.0004,0.0003,-0.0009,-0.0031,-0.0051,-0.0051,-0.0074,-0.009,-0.0013,-0.0054,-0.0053,-0.0053,-0.0053,-0.0053,-0.0053,-0.0092,-0.0062,-0.0031,-0.0015,0.0013,0.0013,0.0011,-0.0,-0.0045,-0.0036,-0.0074,-0.0039,-0.0049,-0.005,-0.0051,-0.0051,-0.0051,-0.0051,-0.0052,-0.0096,-0.0069,-0.0069,-0.0034,-0.001,0.0012,0.0022,-0.0002,-0.0044,-0.0065,-0.005,-0.0099,-0.0114,-0.0099,-0.01,-0.01,-0.01,-0.01,-0.01,-0.0087,-0.0078,-0.0054,-0.0041,-0.0018,0.0012,0.0014,0.0006,-0.0046,-0.0028,-0.0084,-0.0108,-0.0106,-0.0118,-0.0105,-0.0104,-0.0103,-0.0103,-0.0103,-0.0031,-0.0056,-0.0009,0.0005,0.0067,0.0075,0.0054,0.005,0.0011,-0.0013,-0.0022,-0.0025,-0.005,-0.0052,-0.0063,-0.0033,-0.0032,-0.003,0,0.0008,-0.0003,0.009,0.0141,0.0186,0.016,0.018,0.0158,0.0072,0.0078,-0.0006,-0.0015,-0.0017,-0.0042,-0.0041,-0.0052,0,0,0,0.0066,0.0087,0.0179,0.0222,0.0272,0.0258,0.0208,0.0211,0.007,0.0095,0.0004,-0.0005,0.0001,-0.0118,-0.0166,-0.0164,-0.0188,0,0]}]]